Hourly Data Report for April 07, 2021

NANAIMO A
BRITISH COLUMBIA
Current Station Operator: NAVCAN

49°03'16.000" N
123°52'12.000" W
28.00 m
1025365
YCD

Download Data

Hourly Data (April 2021)
Hourly Data Report for April 7, 2021
TIME
LST
Temp Definition
°C
Dew Point Definition
°C
Rel Hum Definition
%
Precip. Amount Definition
mm

Wind Dir Definition
10's deg

Wind Spd Definition
km/h
Visibility Definition
km
Stn Press Definition
kPa
Hmdx Definition


Wind Chill Definition


Weather Definition


00:00 5.5 4.3 93 LegendMM 15 3 LegendMM 101.23     LegendNANA
01:00 6.7 2.2 73 LegendMM 27 4 LegendMM 101.22     LegendNANA
02:00 6.6 1.7 71 LegendMM 24 5 LegendMM 101.19     LegendNANA
03:00 7.7 0.3 59 LegendMM 29 10 LegendMM 101.19     LegendNANA
04:00 7.3 0.4 61 LegendMM 27 4 LegendMM 101.23     LegendNANA
05:00 6.5 0.9 67 LegendMM 20 5 LegendMM 101.23     LegendNANA
06:00 5.6 2.0 78 LegendMM 17 7 LegendMM 101.21     LegendNANA
07:00 5.9 1.8 75 LegendMM 14 2 LegendMM 101.27     LegendNANA
08:00 7.4 1.3 65 LegendMM 16 13 LegendMM 101.22     LegendNANA
09:00 8.3 0.5 58 LegendMM 11 4 LegendMM 101.20     LegendNANA
10:00 8.8 1.1 58 LegendMM 17 12 LegendMM 101.19     LegendNANA
11:00 9.7 1.5 56 LegendMM 27 4 LegendMM 101.19     LegendNANA
12:00 9.7 3.0 63 LegendMM 20 13 LegendMM 101.17     LegendNANA
13:00 9.2 2.3 62 LegendMM 24 14 LegendMM 101.20     LegendNANA
14:00 9.8 1.5 56 LegendMM 23 7 LegendMM 101.15     LegendNANA
15:00 10.3 1.5 54 LegendMM 16 10 LegendMM 101.09     LegendNANA
16:00 9.9 1.2 54 LegendMM 23 9 LegendMM 101.07     LegendNANA
17:00 10.0 -0.1 50 LegendMM 24 15 LegendMM 101.03     LegendNANA
18:00 8.8 0.0 54 LegendMM 26 13 LegendMM 101.05     LegendNANA
19:00 7.8 -0.5 55 LegendMM 24 7 LegendMM 101.05     LegendNANA
20:00 6.0 0.0 65 LegendMM 2 7 LegendMM 101.09     LegendNANA
21:00 4.8 -0.1 71 LegendMM 1 5 LegendMM 101.12     LegendNANA
22:00 4.9 -0.6 67 LegendMM 30 3 LegendMM 101.17     LegendNANA
23:00 5.2 0.8 73 LegendMM 33 23 LegendMM 101.27     LegendNANA

Notes on Data Quality.

Legend

  • E = Estimated
  • M = Missing
  • NA = Not Available*
  • [empty] = Indicates an unobserved value
Date modified: